Total_Precipitation_Accumulation
0.00 0.00 0.01 0.01 0.01 0.02 0.02 0.05 0.11 0.19 0.12 0.12 0.23 0.42 0.48 0.51 0.60 0.76 0.90 0.87 0.92 1.04 1.32 1.65 2.00 2.42 2.93 3.53 4.25 4.32 3.75 3.13 2.60 2.15 1.77 1.44 1.18 1.07 1.02 0.86 0.77 0.75 0.75 0.77
0.01 0.02 0.02 0.02 0.02 0.04 0.05 0.07 0.12 0.16 0.11 0.13 0.20 0.40 0.58 0.67 0.79 0.80 0.84 0.88 0.85 1.04 1.39 1.75 2.17 2.52 2.86 3.28 3.78 3.67 3.14 2.50 1.86 1.42 1.25 1.10 0.91 0.76 0.64 0.56 0.57 0.52 0.58 0.64
0.01 0.03 0.02 0.02 0.02 0.05 0.07 0.08 0.12 0.14 0.07 0.12 0.19 0.47 0.73 0.83 0.71 0.58 0.50 0.60 0.63 0.78 1.21 1.82 2.31 2.59 2.77 2.86 2.70 2.53 2.10 1.53 1.16 0.89 0.78 0.66 0.59 0.53 0.42 0.35 0.36 0.34 0.36 0.40
0.01 0.02 0.01 0.02 0.03 0.04 0.07 0.05 0.05 0.05 0.06 0.20 0.29 0.73 0.96 0.84 0.68 0.55 0.42 0.40 0.43 0.59 1.00 1.72 2.01 2.04 2.06 2.02 1.68 1.44 1.27 0.99 0.79 0.63 0.57 0.50 0.42 0.41 0.34 0.29 0.28 0.25 0.25 0.28
0.02 0.02 0.02 0.02 0.03 0.04 0.05 0.04 0.04 0.07 0.11 0.25 0.42 0.71 0.96 0.80 0.71 0.53 0.38 0.34 0.38 0.48 0.71 1.03 1.07 1.16 1.19 1.13 1.01 0.96 0.98 0.83 0.73 0.65 0.60 0.55 0.38 0.31 0.26 0.24 0.22 0.22 0.24 0.27
0.04 0.04 0.03 0.03 0.02 0.03 0.04 0.05 0.11 0.23 0.34 0.65 0.65 0.70 1.00 0.84 0.62 0.39 0.27 0.28 0.26 0.32 0.46 0.63 0.63 0.64 0.62 0.56 0.61 0.68 0.82 0.83 0.71 0.58 0.48 0.44 0.36 0.30 0.25 0.21 0.21 0.21 0.23 0.26
0.10 0.08 0.08 0.06 0.05 0.06 0.05 0.09 0.26 0.59 0.96 1.07 0.63 0.66 0.95 0.60 0.37 0.26 0.19 0.18 0.23 0.33 0.42 0.51 0.60 0.58 0.48 0.41 0.44 0.49 0.52 0.52 0.49 0.45 0.40 0.37 0.36 0.30 0.26 0.23 0.19 0.18 0.20 0.23
0.14 0.15 0.11 0.07 0.05 0.06 0.07 0.09 0.18 0.35 0.42 0.49 0.49 0.88 0.99 0.47 0.30 0.18 0.12 0.12 0.17 0.24 0.29 0.30 0.36 0.35 0.31 0.28 0.25 0.27 0.31 0.29 0.28 0.29 0.30 0.30 0.29 0.25 0.22 0.25 0.21 0.18 0.20 0.24
0.06 0.06 0.04 0.04 0.06 0.06 0.06 0.06 0.07 0.08 0.13 0.32 0.57 0.78 0.68 0.39 0.23 0.14 0.09 0.08 0.09 0.11 0.12 0.13 0.12 0.12 0.14 0.15 0.16 0.18 0.20 0.21 0.21 0.22 0.24 0.22 0.23 0.24 0.23 0.24 0.21 0.20 0.25 0.27
0.03 0.03 0.03 0.04 0.05 0.07 0.07 0.06 0.05 0.05 0.14 0.30 0.50 0.75 0.73 0.45 0.25 0.12 0.08 0.06 0.06 0.05 0.05 0.06 0.07 0.06 0.05 0.05 0.08 0.14 0.16 0.20 0.24 0.24 0.22 0.18 0.18 0.20 0.21 0.20 0.21 0.24 0.23 0.24
0.02 0.02 0.02 0.03 0.05 0.06 0.06 0.06 0.06 0.06 0.07 0.17 0.37 0.54 0.41 0.27 0.13 0.08 0.06 0.04 0.04 0.04 0.04 0.03 0.03 0.02 0.03 0.04 0.06 0.10 0.11 0.15 0.19 0.18 0.18 0.18 0.17 0.18 0.20 0.22 0.23 0.24 0.22 0.23
0.03 0.02 0.02 0.06 0.07 0.06 0.06 0.06 0.07 0.08 0.09 0.11 0.19 0.25 0.17 0.16 0.11 0.10 0.07 0.05 0.05 0.04 0.03 0.03 0.02 0.01 0.03 0.04 0.04 0.07 0.09 0.09 0.09 0.11 0.11 0.13 0.17 0.18 0.20 0.23 0.26 0.26 0.24 0.22
0.03 0.02 0.04 0.14 0.20 0.14 0.08 0.06 0.08 0.09 0.09 0.10 0.23 0.32 0.18 0.13 0.15 0.16 0.09 0.07 0.06 0.05 0.05 0.04 0.03 0.02 0.03 0.04 0.06 0.07 0.09 0.10 0.10 0.11 0.11 0.12 0.16 0.19 0.22 0.24 0.24 0.23 0.24 0.24
0.05 0.04 0.05 0.15 0.20 0.19 0.15 0.11 0.10 0.10 0.11 0.10 0.16 0.30 0.22 0.15 0.17 0.13 0.08 0.09 0.07 0.05 0.07 0.06 0.05 0.05 0.05 0.06 0.08 0.10 0.11 0.13 0.13 0.14 0.15 0.16 0.19 0.20 0.21 0.21 0.22 0.24 0.26 0.26
0.06 0.06 0.05 0.04 0.08 0.12 0.14 0.13 0.11 0.09 0.09 0.11 0.11 0.16 0.18 0.20 0.16 0.10 0.12 0.17 0.10 0.08 0.08 0.07 0.06 0.05 0.05 0.06 0.07 0.09 0.12 0.13 0.14 0.14 0.15 0.16 0.18 0.20 0.19 0.21 0.24 0.27 0.28 0.29
0.08 0.07 0.06 0.06 0.09 0.10 0.11 0.14 0.10 0.07 0.06 0.06 0.06 0.09 0.12 0.18 0.20 0.19 0.16 0.14 0.11 0.10 0.09 0.10 0.13 0.10 0.09 0.09 0.09 0.10 0.13 0.18 0.20 0.22 0.23 0.20 0.21 0.23 0.21 0.22 0.25 0.29 0.33 0.37
0.14 0.14 0.14 0.14 0.13 0.14 0.14 0.13 0.09 0.07 0.08 0.08 0.08 0.11 0.13 0.19 0.22 0.26 0.28 0.20 0.16 0.16 0.16 0.19 0.23 0.18 0.14 0.13 0.14 0.17 0.21 0.23 0.26 0.28 0.34 0.33 0.33 0.33 0.31 0.31 0.35 0.40 0.47 0.50
0.23 0.23 0.20 0.19 0.22 0.25 0.16 0.12 0.11 0.10 0.10 0.11 0.15 0.20 0.24 0.30 0.34 0.38 0.43 0.39 0.28 0.19 0.17 0.16 0.17 0.20 0.23 0.23 0.24 0.26 0.32 0.36 0.43 0.47 0.53 0.59 0.60 0.59 0.60 0.64 0.62 0.62 0.64 0.63
0.26 0.32 0.30 0.29 0.34 0.29 0.20 0.18 0.16 0.17 0.20 0.22 0.30 0.41 0.46 0.45 0.46 0.44 0.36 0.28 0.21 0.17 0.15 0.15 0.17 0.19 0.23 0.31 0.33 0.32 0.36 0.42 0.54 0.64 0.68 0.74 0.78 0.79 0.79 0.79 0.78 0.79 0.83 0.81
0.29 0.29 0.36 0.34 0.37 0.38 0.32 0.31 0.30 0.34 0.50 0.46 0.52 0.53 0.46 0.39 0.42 0.36 0.26 0.20 0.16 0.12 0.12 0.13 0.16 0.18 0.23 0.29 0.32 0.36 0.42 0.47 0.52 0.55 0.61 0.73 0.86 0.92 0.87 0.83 0.85 0.91 0.99 0.97
0.44 0.44 0.41 0.39 0.40 0.35 0.36 0.36 0.40 0.63 0.76 0.64 0.62 0.56 0.48 0.45 0.43 0.39 0.30 0.21 0.14 0.11 0.10 0.12 0.13 0.16 0.21 0.26 0.33 0.45 0.53 0.54 0.55 0.57 0.62 0.68 0.78 0.88 0.86 0.87 0.91 0.98 1.01 1.03
0.60 0.60 0.58 0.54 0.63 0.59 0.43 0.46 0.63 0.72 0.58 0.56 0.55 0.56 0.55 0.50 0.40 0.32 0.27 0.21 0.15 0.12 0.11 0.13 0.14 0.15 0.20 0.27 0.36 0.49 0.61 0.64 0.67 0.72 0.77 0.84 0.90 0.88 0.85 0.94 1.01 1.08 1.13 1.11
0.66 0.67 0.68 0.70 0.74 0.66 0.56 0.58 0.55 0.53 0.56 0.56 0.51 0.52 0.48 0.47 0.44 0.33 0.24 0.20 0.15 0.12 0.11 0.12 0.15 0.18 0.22 0.30 0.41 0.55 0.61 0.65 0.70 0.76 0.82 0.92 0.99 1.01 1.01 1.05 1.09 1.21 1.27 1.25
0.61 0.60 0.67 0.76 0.75 0.67 0.62 0.63 0.54 0.46 0.46 0.47 0.46 0.42 0.40 0.39 0.41 0.38 0.26 0.18 0.13 0.10 0.09 0.10 0.14 0.18 0.21 0.23 0.29 0.37 0.46 0.53 0.58 0.61 0.65 0.71 0.79 0.86 0.97 1.08 1.11 1.15 1.23 1.27
0.53 0.48 0.55 0.73 0.81 0.86 0.79 0.71 0.63 0.53 0.50 0.51 0.48 0.42 0.36 0.30 0.29 0.30 0.26 0.19 0.14 0.10 0.09 0.10 0.14 0.17 0.18 0.18 0.20 0.23 0.31 0.45 0.55 0.57 0.58 0.63 0.71 0.80 0.94 1.08 1.13 1.05 1.06 1.12
0.56 0.48 0.44 0.59 0.63 0.76 0.84 0.78 0.70 0.58 0.53 0.52 0.51 0.46 0.40 0.32 0.25 0.18 0.16 0.14 0.13 0.11 0.13 0.16 0.18 0.18 0.17 0.18 0.19 0.21 0.28 0.42 0.54 0.57 0.57 0.61 0.67 0.77 0.88 1.00 1.05 0.90 0.77 0.76